GFSWCAN_500_rhum_087.txt.gz
RH
29 33 18 11 79 86 89 92 92 93 98 98 91 74 42 33 70 89 100 95 98 100 91 81 86 91 94 78 73 89 96 100 100 90 58 45 47 74 87 100 100 100 92 50 9 5 7 18 47 57 49 40 53 29
32 32 13 33 89 90 93 94 92 96 100 99 65 45 45 39 27 56 95 98 97 99 99 93 84 85 94 63 67 88 99 92 100 63 43 48 76 95 100 97 100 100 97 97 72 44 55 78 55 76 58 53 55 63
37 26 12 75 92 92 92 88 95 98 98 76 52 51 58 66 49 28 69 100 95 96 99 99 100 100 98 49 87 99 100 100 100 89 76 84 92 100 100 100 100 100 97 96 98 81 75 98 98 82 84 100 100 98
38 16 34 90 91 86 91 94 88 84 79 74 73 80 84 77 60 30 59 100 100 96 98 100 96 79 99 41 69 87 100 96 97 100 87 86 100 100 100 100 94 100 100 98 97 87 91 100 100 100 98 84 60 44
28 18 83 90 86 91 96 93 77 62 59 64 80 87 68 67 57 37 37 50 100 100 99 98 82 87 73 57 18 68 96 100 88 95 90 93 99 100 100 100 97 88 98 100 100 100 100 100 100 100 100 100 97 100
16 62 90 86 87 59 42 74 93 96 80 71 88 65 46 57 66 47 41 62 100 100 100 99 92 92 75 37 19 70 71 83 75 84 98 100 100 100 100 99 86 94 100 100 100 100 100 100 100 100 100 100 100 99
44 92 86 75 38 57 78 82 92 95 86 73 100 89 61 94 64 48 36 100 100 100 100 100 94 79 31 22 20 39 76 95 100 93 96 100 100 100 100 100 100 100 100 100 100 95 98 99 100 100 100 100 100 100
90 88 64 42 71 71 76 89 81 89 99 96 93 84 86 90 72 63 100 100 100 99 97 69 70 75 17 17 20 61 99 100 90 93 98 100 100 92 82 90 99 98 100 100 98 95 88 83 85 91 95 88 86 86
92 74 34 56 80 72 74 100 83 91 100 100 100 100 90 81 79 100 100 100 100 91 56 98 87 100 40 18 46 97 100 100 100 100 100 100 100 100 98 97 100 99 91 100 98 100 90 86 87 92 96 93 81 74
90 47 28 74 70 75 73 68 91 98 100 100 100 99 83 100 100 100 100 100 85 84 100 98 95 100 68 34 92 100 100 100 100 100 100 99 100 100 100 97 98 100 98 100 100 100 99 92 86 84 98 100 100 97
71 39 55 83 96 87 71 74 97 100 100 96 94 100 100 100 100 100 93 86 69 74 100 100 100 100 100 100 100 100 100 100 100 100 99 98 99 100 100 100 100 98 94 100 97 98 96 89 84 83 80 76 73 67
54 30 64 81 87 83 86 83 94 100 95 96 100 100 100 100 100 98 82 63 77 100 98 94 100 100 100 100 100 100 100 100 100 100 100 98 100 100 99 100 98 97 94 90 90 88 87 84 83 75 67 56 43 39
45 44 81 94 78 81 98 94 95 98 98 100 100 100 100 98 96 76 74 81 89 100 100 100 100 100 100 100 100 100 100 100 100 100 100 97 100 95 87 92 95 95 98 99 92 90 84 71 45 33 30 25 24 24
68 99 87 84 97 96 97 96 92 100 100 100 93 85 84 80 82 82 100 100 100 100 100 100 100 100 100 100 100 92 71 69 64 51 60 76 95 94 100 99 90 89 94 84 69 57 48 38 36 35 31 31 39 47
98 94 73 100 100 100 100 100 100 100 100 100 100 94 96 100 99 96 96 97 96 93 90 79 65 60 57 49 56 60 52 44 56 89 98 96 96 92 86 64 59 54 48 46 49 57 58 57 50 53 65 80 90 90
79 98 87 96 100 100 96 100 100 93 97 99 97 99 98 98 92 89 89 85 71 54 51 57 65 63 49 51 46 49 48 71 67 61 63 63 65 65 65 69 74 76 78 82 95 96 96 97 98 94 86 71 44 24
67 78 88 96 98 100 100 100 100 100 93 99 100 95 82 64 54 52 45 55 55 50 45 46 53 54 49 46 56 66 85 96 99 99 99 99 99 100 100 100 100 96 77 54 44 32 29 27 26 25 26 26 26 25
60 82 82 92 100 100 100 100 98 75 69 62 63 76 81 67 62 59 55 48 39 47 57 66 77 83 92 96 100 100 91 34 25 26 27 28 29 29 30 30 30 31 32 32 32 31 31 30 30 30 29 28 27 26
62 85 90 81 81 98 100 86 76 73 75 94 88 83 79 75 68 57 48 51 67 85 98 99 100 100 100 77 37 25 29 30 30 30 29 29 29 29 30 31 31 30 30 30 29 29 28 26 24 22 20 18 16 17
80 66 64 63 69 99 95 90 95 85 91 86 79 70 68 67 66 75 85 88 95 100 100 93 46 26 25 30 32 32 31 30 30 30 31 32 33 34 34 33 33 34 32 26 18 13 10 9 9 9 10 11 13 14
64 58 73 64 95 100 85 77 76 89 78 73 71 71 75 79 77 77 83 94 100 96 44 25 29 34 34 34 34 34 33 32 32 33 35 38 39 38 37 37 28 16 10 10 10 9 8 9 11 13 14 16 17 19
81 94 97 88 81 79 81 69 67 70 76 80 88 93 94 95 91 92 95 95 51 25 32 36 37 38 40 40 39 38 37 37 39 40 41 41 41 42 36 19 11 11 10 9 9 12 14 15 17 21 24 25 25 24
69 61 52 42 41 48 56 58 62 67 76 85 94 97 100 98 64 26 23 27 36 40 40 42 47 48 47 48 46 45 45 42 41 45 48 47 47 35 16 11 12 10 10 12 19 20 19 22 25 26 26 25 24 23
30 32 40 63 77 81 81 75 69 73 86 97 100 100 96 63 29 25 34 41 44 46 51 53 54 54 55 56 55 52 50 50 52 56 55 55 38 15 13 13 11 10 15 21 25 26 24 24 23 25 25 21 19 19
30 31 49 86 88 70 63 68 87 98 96 98 100 96 68 29 26 33 46 49 55 56 56 56 57 60 62 63 63 65 63 63 62 63 58 52 22 13 14 12 11 14 16 17 20 25 26 23 21 24 26 23 20 20
49 63 76 72 64 67 83 94 96 97 100 95 64 24 19 24 33 47 54 61 61 59 55 53 55 58 64 71 74 75 73 70 69 66 63 39 16 14 14 11 15 15 14 13 14 19 24 25 22 23 25 25 25 24
67 67 67 69 78 88 97 98 98 96 86 60 23 15 22 30 44 54 66 65 56 47 47 50 54 56 58 62 75 82 85 78 76 72 59 25 16 16 13 14 16 19 23 23 18 16 20 26 29 26 24 24 22 23
54 55 57 60 66 74 84 86 92 80 38 17 16 20 30 47 54 64 56 50 48 50 52 48 50 53 57 61 82 92 93 85 82 76 41 19 19 16 14 17 21 28 32 34 35 33 28 28 32 35 36 35 33 30
46 45 42 40 42 44 60 85 81 37 17 16 20 25 40 53 60 54 53 50 47 47 40 42 47 47 52 72 95 97 95 89 88 62 28 23 22 16 18 21 29 36 36 37 40 42 44 45 48 48 45 43 44 46
35 36 41 44 52 70 89 66 22 14 18 24 33 44 48 44 40 40 39 37 33 33 35 39 45 50 70 99 99 98 94 90 79 35 24 24 19 17 21 24 36 40 42 46 49 48 48 49 50 54 56 56 54 52
30 32 38 51 68 77 48 18 18 22 31 37 38 35 28 25 25 26 26 28 32 34 37 42 49 68 99 100 100 97 95 88 49 27 25 24 17 20 23 29 43 46 48 52 57 60 61 60 61 62 64 64 66 67
28 32 48 60 53 20 15 18 30 34 34 32 26 21 19 19 21 25 29 33 37 38 43 52 74 100 100 100 100 100 97 59 32 27 28 19 19 23 25 36 49 52 54 58 60 52 44 40 40 42 44 45 45 43
48 41 25 19 24 31 33 39 41 36 30 24 22 20 22 27 29 33 36 39 42 51 67 93 100 100 100 100 100 98 63 34 30 30 24 19 22 25 28 44 54 57 59 60 48 44 42 40 43 49 50 46 40 36

GFSWCAN_500_rhum_090.txt.gz
RH
30 26 21 24 30 31 13 70 88 87 88 87 97 97 90 64 35 75 100 98 78 45 20 20 22 22 20 16 21 30 41 34 34 52 99 97 92 73 47 32 94 98 95 86 48 4 2 5 35 94 86 100 80 97
31 26 24 28 34 25 17 83 94 93 92 87 95 100 100 78 41 30 77 95 100 100 92 84 47 23 21 34 76 86 84 92 96 93 100 86 48 32 34 45 100 71 84 100 91 64 25 13 6 15 34 85 100 98
30 25 28 32 36 17 38 88 97 94 91 93 100 100 93 48 49 51 44 86 94 100 94 93 81 71 75 96 100 76 93 100 100 100 100 82 63 70 62 84 100 100 93 100 92 93 63 89 94 89 93 89 91 76
28 32 34 37 32 18 74 92 91 91 99 100 100 100 88 58 58 70 64 59 86 96 96 100 86 88 92 80 95 74 100 97 100 100 100 62 73 76 99 100 100 98 100 100 98 99 100 100 100 100 100 100 100 100
35 39 39 40 18 59 88 89 90 96 100 100 100 99 98 93 91 90 70 38 64 85 100 100 81 83 85 80 79 77 100 100 100 97 93 74 82 83 99 100 100 100 97 100 100 90 100 100 100 100 100 96 97 92
44 43 45 24 54 90 92 85 49 40 45 70 83 67 57 74 99 88 68 42 35 95 100 96 97 85 87 83 84 59 95 96 93 88 81 97 78 75 98 82 95 100 91 100 99 100 100 100 100 100 100 100 100 100
47 48 29 55 93 86 48 67 75 75 84 93 100 100 100 100 99 82 59 61 40 45 94 100 90 83 76 83 73 40 82 93 81 82 87 94 90 100 100 93 73 98 100 100 100 100 100 100 100 100 100 100 100 100
52 33 61 98 68 49 83 78 76 88 88 78 83 99 100 100 99 64 79 65 56 96 95 88 78 84 80 70 63 39 34 62 70 74 95 90 88 85 94 100 95 85 100 100 100 100 94 87 97 94 91 88 92 97
35 66 100 61 38 67 80 59 87 77 68 89 100 100 100 100 89 97 70 91 100 100 74 76 86 85 40 24 20 18 27 51 75 91 88 81 74 70 90 100 100 92 91 99 98 95 88 63 60 64 61 59 60 66
75 100 67 34 68 79 78 50 79 68 88 100 100 100 99 100 100 88 100 100 100 88 77 87 100 100 100 58 17 24 49 87 94 95 94 87 74 74 94 100 100 92 86 71 64 73 81 63 57 64 59 52 56 67
100 73 28 72 87 91 85 63 61 94 88 100 95 99 100 100 100 100 100 99 76 64 95 100 100 99 100 92 22 33 58 99 100 99 100 89 87 97 96 94 88 86 90 90 87 83 82 74 70 73 73 72 72 75
80 34 56 84 99 94 82 55 64 80 91 100 100 97 100 100 100 98 82 73 63 98 100 100 100 100 100 100 82 73 98 99 100 100 99 99 100 100 98 98 99 98 96 97 96 92 91 88 87 86 84 79 73 65
47 34 90 87 95 100 88 70 87 88 95 99 100 100 100 88 80 71 66 57 83 100 100 100 100 99 96 94 96 100 100 100 100 100 100 100 93 97 99 96 96 94 88 82 78 78 78 84 87 85 75 70 64 54
49 90 99 88 99 100 89 74 78 92 96 94 87 85 88 74 61 52 44 56 81 100 100 95 99 94 99 100 100 100 100 99 95 91 98 96 90 94 90 91 92 89 93 82 68 68 72 74 65 56 45 40 36 34
100 100 100 100 100 100 90 80 83 92 88 85 97 87 75 76 63 70 84 91 98 100 100 100 100 100 100 99 98 85 64 60 56 49 52 72 75 75 71 71 67 66 64 59 56 59 61 62 64 68 78 90 95 94
100 100 100 100 100 100 100 96 97 100 100 100 94 93 100 100 98 97 96 94 95 100 99 93 85 79 79 63 59 54 54 60 53 61 68 71 74 79 80 85 92 94 97 98 99 100 95 85 67 58 52 48 44 43
100 100 100 100 100 100 100 99 88 91 92 97 100 100 100 100 100 100 98 86 74 74 76 70 64 68 52 53 45 45 66 91 89 84 75 71 68 66 57 45 38 34 33 32 32 31 31 31 31 31 31 32 31 31
99 100 99 100 99 100 100 85 81 80 89 99 100 97 82 80 69 59 60 57 40 40 40 48 62 60 60 72 90 88 83 58 26 28 30 30 30 30 30 30 30 30 30 30 31 30 30 29 29 29 28 26 24 22
99 100 100 100 100 100 94 98 100 97 95 92 80 65 61 56 62 57 46 46 54 63 72 84 91 96 98 87 58 26 29 32 32 30 28 27 28 28 29 29 30 32 32 31 28 21 14 10 10 9 9 9 9 9
91 100 100 100 100 100 93 76 78 72 94 94 88 79 70 60 48 46 57 70 86 93 96 96 78 52 30 29 33 34 32 30 30 31 32 33 34 36 37 37 37 34 24 14 11 10 10 10 9 8 8 8 10 11
94 90 98 100 100 100 96 85 77 95 86 78 74 68 63 65 70 70 76 88 94 96 79 30 27 33 36 36 34 34 37 37 37 38 37 37 39 43 43 40 32 18 12 12 12 11 9 9 11 13 15 14 15 17
85 68 82 100 100 100 100 91 84 77 71 71 74 77 76 70 66 75 85 90 90 46 27 34 38 39 39 40 45 45 44 44 43 45 45 46 49 48 47 38 19 13 13 13 10 10 12 16 21 22 21 21 23 25
61 58 73 96 94 78 82 82 79 75 79 83 86 87 84 81 79 84 85 59 26 33 39 42 43 46 51 53 53 52 51 51 51 50 52 56 56 54 50 25 14 15 14 11 11 14 15 16 20 25 25 22 23 26
72 89 94 85 73 74 69 74 73 72 77 87 97 97 77 32 24 24 29 37 42 45 46 47 52 54 58 59 60 63 64 64 62 60 65 66 65 63 39 16 16 15 12 13 15 16 15 14 16 24 25 22 23 26
70 56 49 49 55 57 56 55 62 71 84 96 96 82 47 25 27 35 44 48 47 51 54 52 50 52 53 54 55 59 67 73 73 73 77 76 75 61 22 18 18 13 14 17 21 25 25 19 16 20 26 25 25 29
41 44 60 84 78 83 68 65 71 83 89 95 96 77 36 24 31 44 49 53 59 57 46 42 44 49 48 49 52 55 63 83 81 77 78 77 76 36 20 20 15 14 17 25 30 31 32 32 27 25 28 32 31 28
32 38 84 95 78 67 66 83 90 93 95 89 84 54 21 27 38 49 58 64 55 43 41 47 47 44 45 46 48 52 75 88 86 83 83 85 60 23 22 19 14 17 21 31 35 36 36 37 40 42 42 38 38 42
60 78 81 76 70 77 89 94 97 97 89 58 25 17 24 32 45 56 62 52 47 49 51 45 40 40 40 43 48 58 87 92 90 87 88 84 34 23 23 16 17 21 27 37 39 42 44 45 44 44 47 52 54 52
70 69 71 76 83 92 95 98 100 94 78 38 18 19 27 41 53 58 58 51 48 45 43 34 34 35 39 44 51 85 95 94 93 93 94 51 27 26 20 17 21 24 33 42 45 48 52 55 56 56 56 57 61 64
58 60 66 76 81 84 80 87 96 66 27 16 19 27 32 42 49 45 38 33 31 29 29 32 36 40 44 51 85 98 97 96 99 100 68 31 29 25 18 21 24 27 42 49 50 52 55 52 44 41 40 41 43 45
45 42 41 42 41 44 66 77 62 25 16 17 25 34 37 37 31 25 24 24 24 26 31 36 40 46 57 85 99 99 100 99 97 77 33 30 27 20 21 25 25 29 44 53 56 58 54 45 44 42 40 45 50 50
33 38 48 50 55 64 73 61 34 18 16 20 23 25 24 21 20 23 25 26 29 32 36 42 50 66 93 100 100 100 98 99 84 36 33 29 24 21 25 29 27 32 49 58 61 60 50 45 46 44 41 47 55 54
29 30 34 42 57 59 47 27 19 19 24 24 25 24 22 30 34 37 37 36 37 41 48 62 83 100 100 100 100 100 100 82 38 35 31 27 24 25 33 35 28 32 49 61 64 59 48 47 48 47 43 43 48 52

GFSWCAN_500_rhum_096.txt.gz
RH
35 37 34 31 29 29 21 16 20 26 24 21 26 32 90 94 94 79 48 72 80 31 31 32 41 55 64 90 89 100 100 88 73 74 76 80 65 50 42 52 47 39 26 21 16 16 14 22 17 15 9 6 23 86
11 16 43 39 35 34 32 29 28 28 24 23 27 38 97 94 94 98 64 46 80 91 51 33 33 31 27 54 76 63 39 36 32 31 34 39 34 21 23 35 37 44 33 33 49 38 31 59 28 10 12 8 5 74
13 12 13 48 42 39 38 36 32 30 25 27 27 47 100 99 93 100 94 48 69 95 96 81 35 27 28 26 22 24 23 23 20 20 26 36 21 18 23 35 46 38 34 46 96 91 72 74 56 35 27 13 4 5
10 10 11 23 55 41 42 39 36 32 27 32 28 62 100 100 99 98 100 59 40 76 96 97 100 95 46 23 21 24 21 23 35 44 60 99 85 56 61 55 50 44 39 73 100 84 93 99 93 69 65 38 12 8
16 15 14 14 58 49 42 42 38 32 32 36 29 80 100 100 100 98 99 65 58 61 78 97 96 98 100 82 38 18 15 65 94 89 73 83 84 90 79 68 51 42 45 99 96 100 100 91 99 100 91 100 100 87
18 16 27 44 51 58 44 42 39 35 40 36 40 98 100 100 100 99 97 71 62 73 59 90 100 90 86 80 86 82 56 74 82 92 100 100 97 75 71 60 61 82 78 100 93 100 97 100 100 100 88 100 100 92
19 17 16 86 62 62 43 41 40 42 44 39 86 100 100 100 100 100 98 96 90 86 77 61 82 79 85 76 78 96 97 96 100 93 91 95 88 91 70 73 98 100 100 100 80 99 100 100 100 100 100 100 100 100
18 16 24 71 73 54 43 44 45 47 47 92 100 100 95 99 95 80 100 100 100 100 85 68 43 59 74 85 84 94 97 94 78 60 80 71 74 98 97 100 100 100 100 100 99 94 100 100 100 100 93 77 72 75
17 16 70 84 63 51 50 51 51 62 100 92 78 97 100 99 82 75 98 88 97 100 79 78 56 50 56 82 86 90 92 92 79 100 100 92 89 81 87 94 100 99 96 99 100 100 100 94 76 70 61 66 71 66
16 54 92 69 63 56 56 58 99 92 72 95 100 100 97 92 92 92 100 100 100 100 78 76 62 43 78 91 84 68 76 92 56 73 94 68 69 61 72 83 91 76 66 76 86 81 83 86 79 67 60 60 66 71
61 91 77 64 59 65 97 90 90 100 94 74 72 100 95 97 100 100 100 100 97 65 76 75 63 80 83 74 49 42 80 79 52 46 63 62 52 69 86 87 88 74 63 62 67 57 56 65 73 62 56 65 73 76
92 69 61 71 99 98 100 96 68 56 60 72 87 92 100 100 100 100 98 91 80 77 76 73 75 84 96 98 81 43 59 55 50 50 52 47 91 98 82 86 92 67 50 55 76 81 84 86 86 82 78 78 76 74
63 69 100 100 100 100 76 52 50 43 75 100 100 100 99 95 100 90 65 75 53 53 76 84 89 96 99 100 100 45 49 48 45 68 79 99 100 100 92 91 90 83 78 77 79 77 75 73 68 60 58 61 64 65
100 100 100 100 100 75 61 70 46 56 82 100 86 94 87 89 97 57 61 92 62 86 94 88 94 100 100 100 99 100 53 54 53 72 99 85 70 76 79 75 75 68 60 52 47 45 49 52 58 65 71 72 70 71
100 100 100 100 67 64 66 57 61 86 85 89 100 92 85 45 58 54 61 85 96 81 81 88 100 100 100 100 84 89 96 94 98 86 56 42 40 42 49 56 63 70 75 81 82 77 66 51 38 33 30 29 29 29
100 100 100 100 63 65 65 57 58 74 62 89 59 85 95 77 87 82 81 81 66 84 87 92 97 98 100 100 100 100 100 92 61 53 58 83 85 62 46 40 34 32 30 29 30 31 31 31 32 33 33 32 32 32
100 100 100 100 69 62 59 59 58 59 69 85 77 80 91 84 81 80 69 60 65 83 90 99 100 100 100 100 100 99 74 47 65 98 66 29 31 31 30 30 30 31 32 32 33 35 36 36 35 35 35 34 28 21
100 100 100 100 96 69 67 69 72 80 83 92 97 100 90 77 54 49 54 63 74 89 100 100 100 100 96 68 52 52 67 95 91 35 32 31 32 33 32 32 32 33 35 36 38 40 40 40 40 34 22 17 16 16
100 100 100 100 100 100 100 100 100 100 100 100 100 97 70 47 44 58 73 87 97 100 100 91 64 47 46 53 78 99 61 30 33 33 34 36 36 36 38 38 38 39 41 44 46 46 46 35 21 18 16 14 11 10
96 100 100 100 100 100 100 95 92 93 94 100 100 100 100 100 99 100 100 99 90 70 57 54 57 66 94 94 46 32 34 35 38 40 40 40 42 44 45 45 46 49 51 54 54 47 27 19 16 12 10 10 11 14
100 100 100 100 100 94 90 89 90 90 90 99 98 100 100 100 86 63 51 49 52 65 83 94 96 97 32 34 36 37 42 44 45 46 49 52 55 56 56 55 57 57 60 59 45 25 19 14 11 11 13 17 21 23
100 100 100 100 100 96 97 100 97 92 83 81 83 80 74 57 48 56 71 86 95 97 70 33 29 35 37 39 42 47 50 52 58 62 64 67 69 68 63 61 61 63 64 48 27 21 14 12 14 17 23 24 24 26
100 100 100 100 100 97 95 95 80 71 67 69 67 55 47 50 69 87 97 99 90 41 27 36 39 42 45 49 54 56 55 49 47 47 50 67 76 76 70 66 68 70 58 31 24 16 12 14 18 25 28 28 28 28
98 94 93 88 86 90 92 84 83 83 72 65 61 55 53 63 79 93 97 84 30 30 39 43 46 50 52 54 53 47 42 42 40 43 48 64 82 81 78 75 77 70 39 27 20 13 14 18 23 32 34 36 36 35
93 89 87 86 79 85 86 82 84 77 72 72 75 74 62 61 77 91 83 36 36 43 48 51 52 51 49 45 42 40 41 40 39 42 50 68 86 84 82 82 84 51 31 25 16 13 18 21 27 36 39 42 44 43
91 85 88 91 78 83 78 74 73 74 78 91 98 82 72 73 77 59 33 42 46 50 53 53 49 45 40 42 46 41 37 36 39 45 55 78 92 89 88 89 69 37 30 21 14 17 22 24 32 41 46 48 48 44
72 80 89 85 78 68 67 69 72 72 79 92 91 57 38 25 27 39 46 50 52 55 55 47 41 41 48 48 38 33 31 31 39 52 68 95 95 94 94 88 46 34 26 16 15 20 27 27 37 46 50 52 48 44
67 74 70 67 64 63 65 59 61 72 88 87 79 55 29 23 29 44 48 52 56 58 56 52 48 49 44 33 28 28 29 33 43 68 92 100 98 96 98 59 38 31 21 16 18 23 33 30 37 52 57 56 49 46
58 58 56 54 51 49 52 61 72 82 85 86 84 79 74 41 28 31 42 50 55 58 58 53 43 33 27 24 25 27 33 43 67 93 100 100 97 98 72 43 35 26 17 16 18 21 33 37 37 54 66 65 53 49
45 58 71 74 69 66 69 80 82 83 86 87 80 72 58 38 23 27 36 44 45 42 38 33 28 25 24 28 33 37 47 70 93 100 100 99 98 80 47 40 33 21 16 16 18 20 29 41 42 48 68 69 61 53
52 73 80 76 71 73 80 82 83 84 85 79 62 39 23 19 19 23 30 35 38 37 31 24 25 33 38 37 39 59 86 98 100 100 100 99 84 51 44 40 29 18 16 17 19 20 23 37 45 48 57 64 61 56
76 74 70 68 72 80 82 84 87 89 86 70 52 32 20 20 20 24 29 37 34 25 23 30 40 43 49 66 89 99 100 100 100 100 99 85 54 47 45 38 24 18 17 19 21 24 30 38 45 52 57 59 58 57
66 70 74 78 83 87 86 83 76 68 69 67 46 24 18 19 23 26 29 29 29 30 37 54 65 75 92 100 100 100 100 100 100 100 81 54 48 49 44 32 20 19 18 20 25 30 35 41 46 50 53 55 56 56

GFSWCAN_500_rhum_102.txt.gz
RH
35 34 31 29 29 27 26 24 22 20 19 18 16 14 12 15 20 18 25 52 63 53 36 38 14 20 26 42 79 76 61 72 72 65 58 54 49 49 42 40 41 42 48 53 54 53 54 48 43 33 21 18 16 14
48 43 40 35 35 34 32 32 32 29 26 24 21 17 14 21 22 21 30 60 71 64 40 54 28 16 19 28 47 70 78 72 72 67 60 51 48 46 44 46 46 48 53 60 50 44 50 58 57 49 41 34 26 22
42 44 47 47 49 45 42 40 36 34 30 28 27 20 19 27 24 25 34 78 74 69 44 42 65 28 19 19 24 38 51 66 74 81 60 49 46 43 48 53 53 50 50 54 51 38 44 42 40 34 28 28 21 17
26 25 25 25 26 30 38 48 48 42 38 35 33 26 28 31 27 28 58 74 82 81 52 50 72 71 34 23 21 20 20 43 68 71 44 40 41 39 42 44 50 46 38 39 36 32 32 81 79 54 55 43 29 19
20 21 21 21 19 19 22 20 38 34 43 40 40 34 35 34 30 34 73 80 82 87 63 52 62 79 82 84 57 23 19 17 16 17 18 20 21 21 26 34 35 39 41 38 34 33 57 80 100 94 75 59 55 42
25 25 23 22 23 20 17 17 15 12 14 45 43 40 38 37 34 33 68 95 93 98 73 56 57 68 85 85 80 81 36 18 19 19 16 16 17 31 54 50 57 51 47 50 40 37 77 79 74 80 84 78 74 57
18 17 17 16 15 15 14 13 14 15 13 40 45 43 41 42 39 42 82 100 100 97 88 66 66 62 66 77 70 62 69 71 26 15 16 31 39 49 88 73 76 78 62 78 53 40 48 92 84 81 73 70 74 56
20 18 17 16 15 13 12 12 12 14 24 28 48 45 46 46 44 71 99 100 99 97 94 74 79 74 64 54 54 46 48 56 70 66 33 58 66 59 81 76 88 79 87 100 100 98 100 100 100 100 100 100 100 96
27 26 22 20 20 20 19 16 16 49 67 52 49 49 51 48 48 98 100 100 100 99 78 76 85 79 82 70 54 44 35 35 49 68 78 74 78 81 83 76 92 100 94 98 100 100 100 100 100 100 100 100 94 83
29 26 24 24 20 21 21 20 52 100 69 54 51 52 52 55 97 100 100 98 98 100 76 70 76 72 66 67 64 46 40 49 56 75 76 72 74 80 98 86 96 84 86 81 87 90 95 97 99 94 86 83 84 68
26 23 21 23 23 23 20 61 100 94 65 53 55 56 61 97 100 100 100 88 76 72 67 71 87 93 74 63 64 52 57 56 52 67 72 50 73 66 64 88 77 67 65 65 69 76 80 73 60 56 57 57 46 43
23 20 17 20 22 20 52 98 100 87 64 63 72 94 100 100 100 99 84 64 56 59 59 65 75 79 74 67 59 68 39 52 48 51 72 54 80 80 87 71 64 74 77 75 80 76 74 60 59 61 75 77 82 83
19 15 16 20 19 51 98 100 92 70 75 95 100 100 100 99 100 78 62 60 55 56 57 82 78 86 88 85 74 60 65 98 71 57 48 41 64 74 67 71 91 99 100 99 96 97 92 78 68 66 63 62 60 56
14 16 18 22 80 100 100 86 70 82 100 100 100 100 100 95 70 63 56 53 56 55 100 100 90 82 93 85 94 94 87 95 75 70 62 67 74 87 99 100 100 97 92 84 78 68 60 54 40 34 32 33 33 34
16 25 70 100 98 90 88 94 100 100 100 100 100 95 92 90 69 47 37 57 70 90 100 94 83 96 92 95 100 97 77 82 83 85 90 95 77 72 81 83 68 51 38 32 33 34 36 36 36 34 32 31 31 33
91 97 94 94 100 100 100 100 100 100 100 100 99 84 73 54 56 61 45 62 66 65 73 73 84 83 83 94 97 98 99 100 100 86 74 95 67 34 33 34 36 38 38 37 37 38 39 39 38 37 36 35 36 38
100 100 100 100 100 100 100 100 100 100 90 100 70 71 100 98 100 63 51 76 70 67 66 79 77 78 93 94 100 100 100 100 95 89 99 39 34 37 41 44 45 45 44 43 43 43 43 42 40 40 43 46 36 24
100 100 100 100 97 71 70 88 74 90 100 94 100 82 65 78 84 56 45 46 63 72 81 81 92 95 99 100 100 99 92 88 90 89 35 38 45 48 49 48 47 48 50 49 47 48 48 48 51 53 43 26 20 17
100 100 96 85 69 71 78 90 95 88 93 71 75 80 65 65 54 47 46 52 84 88 83 89 92 98 100 100 100 97 82 86 34 38 46 52 57 57 56 54 55 58 60 60 58 56 57 58 55 36 23 20 15 11
93 76 67 66 64 90 83 100 86 60 72 85 97 91 76 66 63 51 63 76 84 83 87 91 100 100 100 99 82 96 55 37 46 53 58 57 57 59 61 63 67 72 73 69 64 62 63 58 38 25 22 16 10 10
91 78 71 82 97 93 89 100 100 90 91 100 92 75 61 58 54 55 63 71 73 80 100 100 100 100 80 92 85 36 41 50 56 55 54 58 60 55 51 53 60 74 76 74 68 68 64 44 28 26 18 11 11 15
100 100 100 93 96 100 96 90 89 92 98 100 97 72 48 45 49 58 69 80 88 90 100 97 77 92 96 40 38 45 55 57 55 55 54 49 44 42 44 50 55 80 80 79 75 73 55 33 29 24 13 11 14 22
99 99 100 100 100 99 97 99 100 100 100 97 85 69 66 70 76 81 85 92 91 76 70 80 100 73 37 43 52 56 54 51 50 46 39 33 34 39 44 53 72 86 84 82 79 68 42 32 32 19 12 13 16 24
100 100 100 100 99 95 98 99 100 100 100 100 100 100 97 88 79 72 66 73 85 95 93 65 39 40 47 53 54 53 47 46 44 38 35 34 36 39 46 61 90 90 87 86 80 53 37 35 29 15 12 14 18 26
100 100 100 100 100 100 99 96 98 100 100 98 70 55 52 55 67 82 92 95 59 29 36 41 44 49 51 52 52 46 48 46 41 36 35 37 40 44 57 89 96 94 91 90 68 44 37 36 21 14 14 17 19 24
100 100 100 100 100 100 98 92 87 76 64 54 51 59 81 91 89 89 89 59 30 38 41 44 48 51 51 47 46 48 49 43 38 32 36 43 49 60 89 100 96 96 94 85 54 40 38 28 15 15 16 19 21 24
100 100 100 100 100 97 86 76 71 72 68 61 51 51 68 77 86 78 50 29 36 42 47 51 52 52 54 54 55 55 46 37 33 34 36 45 65 89 100 99 98 97 95 70 46 39 36 20 15 16 17 22 25 29
100 99 100 100 97 84 75 72 80 85 94 86 68 58 61 72 79 62 37 36 42 47 52 55 56 60 63 61 54 47 38 34 33 35 39 58 85 100 100 100 100 98 87 61 43 40 30 16 16 16 19 24 30 34
89 88 88 91 84 72 66 71 74 75 84 88 70 64 66 68 57 37 40 45 49 52 56 57 57 56 50 43 38 34 33 33 34 38 49 74 97 100 100 100 99 96 78 52 42 38 22 16 17 17 19 26 33 38
83 74 67 67 66 60 62 64 60 63 72 77 73 56 40 28 26 30 36 42 44 44 42 40 37 35 33 33 33 32 33 35 41 48 69 96 100 100 100 100 99 89 65 46 43 32 19 17 18 17 20 27 33 38
68 66 61 56 55 56 59 53 51 60 77 80 74 66 54 49 54 53 44 39 35 34 31 28 29 29 29 29 30 35 44 48 48 64 94 100 100 100 100 100 95 77 56 46 42 26 18 19 18 19 23 29 34 38
56 57 52 50 51 50 47 47 56 70 78 80 81 76 76 72 67 59 48 31 22 22 23 24 24 25 26 32 37 39 38 46 74 93 100 100 100 100 100 97 86 70 54 48 37 22 19 20 19 20 24 29 34 38
51 50 47 44 46 48 48 59 73 82 81 81 77 74 75 70 65 58 45 36 30 30 32 33 32 29 26 26 28 43 69 85 97 100 100 100 100 100 100 93 82 66 56 49 31 21 22 21 20 22 27 33 39 44